Regional Weather Roundup
Issued by NWS

Home | Current Version | Previous Version | Text Only | Print | Product List | Glossary Off
Versions: 1 2 3 4 5 6 7 8 9 10 11 12 13 14 15 16 17 18 19 20 21 22 23 24 25 26 27 28 29 30 31 32 33 34 35 36 37 38 39 40 41 42 43 44 45 46 47 48 49 50

000
ASUS44 KMEG 161810
RWRTN
TENNESSEE HOURLY STATE WEATHER ROUNDUP
NATIONAL WEATHER SERVICE MEMPHIS TN
100 PM CDT TUE SEP 16 2014

TNZ002-004-019-021-049-052-054-088>092-161900-
WEST TENNESSEE

CITY           SKY/WX    TMP DP  RH WIND       PRES   REMARKS
MEMPHIS INTL   CLOUDY    74  66  76 NE6       30.11F
NWS MEMPHIS      N/A     73 N/A N/A MISG        N/A
JACKSON        CLOUDY    70  64  81 NE10      30.12F
DYERSBURG      CLOUDY    72  54  53 NE7       30.14F
UNION CITY     PTSUNNY   70  57  64 N6        30.13F
PARIS          CLOUDY    66  57  72 N7        30.14F
HUNTINGDON     CLOUDY    66  58  75 N3        30.14F
LEXINGTON      CLOUDY    66  63  88 NE9       30.12S
SAVANNAH       CLOUDY    79  70  73 N9        30.10F
$$

TNZ008-025-027-028-033-062-065-066-161900-
NORTH MIDDLE TENNESSEE

CITY           SKY/WX    TMP DP  RH WIND       PRES   REMARKS
NASHVILLE      CLOUDY    69  62  78 N10       30.12F
DICKSON          N/A     64  61  88 N8        30.13F
PORTLAND       CLOUDY    64  61  88 VRB3      30.12F
CLARKSVILLE    PTSUNNY   68  57  68 VRB5      30.14F
LEBANON        CLOUDY    64  63  97 N9        30.11S
SMYRNA         PTSUNNY   69  64  84 N9        30.12F
MURFREESBORO   CLOUDY    71  64  78 N7        30.10F
COOKEVILLE     CLOUDY    70  64  83 CALM      30.10F
LIVINGSTON     CLOUDY    65  62  90 CALM      30.12F
CROSSVILLE     PTSUNNY   72  63  73 NW12      30.13S
$$

TNZ061-075-076-078-094-096-097-161900-
SOUTH MIDDLE TENNESSEE

CITY           SKY/WX    TMP DP  RH WIND       PRES   REMARKS
LEWISBURG      CLOUDY    75  68  79 N7        30.10F
FAYETTEVILLE   CLOUDY    79  64  61 N6        30.09F
TULLAHOMA      CLOUDY    73  66  78 N6        30.11F
WINCHESTER     CLOUDY    79  66  65 CALM      30.09F
MCMINNVILLE    CLOUDY    72  70  94 NW7       30.11S
COLUMBIA       CLOUDY    73  70  88 N6        30.09F
SHELBYVILLE    CLOUDY    73  66  78 N5        30.11F
$$

TNZ017-018-042-046-047-161900-
NORTHEAST TENNESSEE

CITY           SKY/WX    TMP DP  RH WIND       PRES   REMARKS
TRI CITIES     CLOUDY    74  63  68 W9        30.08S
ELIZABETHTON   MOCLDY    73  64  73 NW8       30.07F
$$

TNZ012-013-036-069-073-074-161900-
CENTRAL EAST TENNESSEE

CITY           SKY/WX    TMP DP  RH WIND       PRES   REMARKS
KNOXVILLE      PTSUNNY   79  65  62 VRB5      30.06F
OAK RIDGE      PTSUNNY   78  66  66 VRB5      30.08F
GATLINBURG     CLOUDY    81  64  57 NW6       30.05F
MORRISTOWN       N/A     75  64  69 VRB5      30.08F
$$

TNZ083-085-099-161900-
SOUTHEAST TENNESSEE

CITY           SKY/WX    TMP DP  RH WIND       PRES   REMARKS
CHATTANOOGA    PTSUNNY   82  65  56 CALM      30.07F
$$

SKY/WX REPORTED AS FAIR MEANS FEW OR NO CLOUDS BELOW
12 THOUSAND FEET.




USA.gov is the U.S. government's official web portal to all federal, state and local government web resources and services.